Weather History for KBPC - April, 2013

Change the Weather History Date:

Sunday, April 28, 2013

  Actual Average Record
Temperature  
Mean Temperature 70 °F -  
Max Temperature 89 °F - - ()
Min Temperature 50 °F - - ()
Cooling Degree Days 4    
Growing Degree Days 20 (Base 50)    
Moisture  
Dew Point 32 °F    
Average Humidity 30    
Maximum Humidity 58    
Minimum Humidity 9    
Precipitation  
Precipitation 0.00 in - - ()
Sea Level Pressure  
Sea Level Pressure 29.90 in    
Wind  
Wind Speed 13 mph (SW)    
Max Wind Speed 24 mph    
Max Gust Speed 31 mph    
Visibility 10 miles    
Events      
Averages and records for this station are not official NWS values.
T = Trace of Precipitation, MM = Missing Value Source: NWS Daily Summary

Daily Weather History Graph

Daily Weather History Graph

Search for Another Location

Airport or City:

Trip Planner

Search our weather history database for the weather conditions in past years. The results will help you decide how hot, cold, wet, or windy it might be!

Date:

Astronomy

Apr. 28, 2013 Rise Set
Actual Time 6:54 AM CDT 8:28 PM CDT
Civil Twilight 6:27 AM CDT 8:56 PM CDT
Nautical Twilight 5:54 AM CDT 9:28 PM CDT
Astronomical Twilight 5:20 AM CDT 10:03 PM CDT
Moon 11:57 PM CDT (4/28) 9:16 AM CDT (4/28)
Length of Visible Light 14h 28m
Length of Day
13h 34m
Waning Gibbous, 88% of the Moon is Illuminated
Apr 28
Waning Gibbous
May 2
Last Quarter
May 9
New
May 17
First Quarter
May 24
Full

Hourly Weather History & Observations

Time (CDT) Temp. Dew Point Humidity Pressure Visibility Wind Dir Wind Speed Gust Speed Precip Events Conditions
12:15 AM 62.6 °F 41.0 °F 45% 30.00 in 10.0 mi SSE 24.2 mph 29.9 mph N/A   Clear
12:35 AM 60.8 °F 41.0 °F 48% 30.00 in 10.0 mi SSE 20.7 mph 27.6 mph N/A   Clear
12:55 AM 60.8 °F 41.0 °F 48% 30.00 in 10.0 mi South 16.1 mph 26.5 mph N/A   Clear
1:15 AM 60.8 °F 42.8 °F 52% 30.00 in 10.0 mi South 16.1 mph 21.9 mph N/A   Clear
1:35 AM 59.0 °F 42.8 °F 55% 30.01 in 10.0 mi SSW 4.6 mph - N/A   Clear
1:55 AM 59.0 °F 42.8 °F 55% 30.01 in 10.0 mi WSW 5.8 mph - N/A   Clear
2:15 AM 59.0 °F 42.8 °F 55% 30.01 in 10.0 mi West 8.1 mph - N/A   Clear
2:35 AM 59.0 °F 41.0 °F 51% 30.00 in 10.0 mi SW 10.4 mph - N/A   Clear
2:55 AM 55.4 °F 41.0 °F 58% 30.00 in 10.0 mi West 8.1 mph - N/A   Clear
3:15 AM 55.4 °F 41.0 °F 58% 29.99 in 10.0 mi WSW 9.2 mph - N/A   Clear
3:35 AM 55.4 °F 41.0 °F 58% 29.99 in 10.0 mi SW 11.5 mph - N/A   Clear
3:55 AM 53.6 °F 39.2 °F 58% 29.98 in 10.0 mi SW 10.4 mph - N/A   Clear
4:15 AM 53.6 °F 37.4 °F 54% 29.98 in 10.0 mi SW 9.2 mph 16.1 mph N/A   Clear
4:35 AM 51.8 °F 37.4 °F 58% 29.98 in 10.0 mi WSW 8.1 mph - N/A   Clear
4:55 AM 53.6 °F 35.6 °F 51% 29.99 in 10.0 mi SW 10.4 mph - N/A   Clear
5:15 AM 53.6 °F 35.6 °F 51% 29.99 in 10.0 mi SW 11.5 mph - N/A   Clear
5:35 AM 51.8 °F 35.6 °F 54% 29.99 in 10.0 mi SW 8.1 mph - N/A   Clear
5:55 AM 50.0 °F 35.6 °F 58% 29.99 in 10.0 mi SW 8.1 mph - N/A   Clear
6:15 AM 50.0 °F 35.6 °F 58% 29.99 in 10.0 mi SW 9.2 mph - N/A   Clear
6:35 AM 51.8 °F 35.6 °F 54% 29.98 in 10.0 mi SW 10.4 mph - N/A   Clear
6:55 AM 51.8 °F 35.6 °F 54% 29.98 in 10.0 mi SW 11.5 mph - N/A   Clear
7:15 AM 51.8 °F 35.6 °F 54% 29.99 in 10.0 mi SW 11.5 mph - N/A   Clear
7:35 AM 55.4 °F 33.8 °F 44% 29.99 in 10.0 mi SW 13.8 mph - N/A   Clear
7:55 AM 59.0 °F 33.8 °F 39% 29.99 in 10.0 mi SW 13.8 mph - N/A   Clear
8:15 AM 60.8 °F 33.8 °F 36% 29.99 in 10.0 mi SW 15.0 mph 19.6 mph N/A   Clear
8:35 AM 62.6 °F 33.8 °F 34% 29.99 in 10.0 mi WSW 18.4 mph 24.2 mph N/A   Clear
8:55 AM 64.4 °F 33.8 °F 32% 29.99 in 10.0 mi SW 19.6 mph 27.6 mph N/A   Clear
9:15 AM 68.0 °F 33.8 °F 28% 29.98 in 10.0 mi SW 21.9 mph 26.5 mph N/A   Clear
9:35 AM 69.8 °F 33.8 °F 27% 29.98 in 10.0 mi WSW 24.2 mph 31.1 mph N/A   Clear
9:55 AM 71.6 °F 33.8 °F 25% 29.97 in 10.0 mi WSW 20.7 mph 27.6 mph N/A   Clear
10:15 AM 73.4 °F 35.6 °F 25% 29.96 in 10.0 mi WSW 24.2 mph 28.8 mph N/A   Clear
10:55 AM 77.0 °F 35.6 °F 22% 29.95 in 10.0 mi WSW 23.0 mph 31.1 mph N/A   Clear
11:15 AM 77.0 °F 35.6 °F 22% 29.94 in 10.0 mi WSW 24.2 mph 28.8 mph N/A   Clear
11:55 AM 80.6 °F 35.6 °F 20% 29.93 in 10.0 mi WSW 19.6 mph 29.9 mph N/A   Clear
12:35 PM 82.4 °F 33.8 °F 17% 29.92 in 10.0 mi WSW 15.0 mph 23.0 mph N/A   Clear
12:55 PM 84.2 °F 32.0 °F 15% 29.92 in 10.0 mi WSW 12.7 mph 19.6 mph N/A   Clear
1:15 PM 86.0 °F 30.2 °F 13% 29.91 in 10.0 mi West 13.8 mph 18.4 mph N/A   Clear
1:35 PM 86.0 °F 26.6 °F 12% 29.90 in 10.0 mi West 6.9 mph 20.7 mph N/A   Clear
1:55 PM 86.0 °F 26.6 °F 12% 29.90 in 10.0 mi WNW 16.1 mph 23.0 mph N/A   Clear
2:15 PM 86.0 °F 26.6 °F 12% 29.89 in 10.0 mi SW 11.5 mph 16.1 mph N/A   Clear
2:35 PM 87.8 °F 26.6 °F 11% 29.88 in 10.0 mi WNW 5.8 mph 18.4 mph N/A   Clear
2:55 PM 87.8 °F 26.6 °F 11% 29.87 in 10.0 mi SW 10.4 mph 25.3 mph N/A   Clear
3:15 PM 89.6 °F 26.6 °F 10% 29.86 in 10.0 mi WSW 16.1 mph 19.6 mph N/A   Clear
3:35 PM 87.8 °F 24.8 °F 10% 29.85 in 10.0 mi SW 5.8 mph - N/A   Clear
3:55 PM 87.8 °F 23.0 °F 9% 29.84 in 10.0 mi Calm Calm - N/A   Clear
4:15 PM 89.6 °F 23.0 °F 9% 29.83 in 10.0 mi West 5.8 mph 16.1 mph N/A   Clear
4:35 PM 87.8 °F 24.8 °F 10% 29.82 in 10.0 mi SW 8.1 mph 16.1 mph N/A   Clear
4:55 PM 89.6 °F 23.0 °F 9% 29.81 in 10.0 mi SSW 6.9 mph 25.3 mph N/A   Clear
5:15 PM 89.6 °F 23.0 °F 9% 29.80 in 10.0 mi WSW 9.2 mph 18.4 mph N/A   Clear
5:35 PM 89.6 °F 24.8 °F 10% 29.80 in 10.0 mi SW 6.9 mph 17.3 mph N/A   Clear
5:55 PM 87.8 °F 23.0 °F 9% 29.80 in 10.0 mi Calm Calm - N/A   Clear
6:15 PM 87.8 °F 23.0 °F 9% 29.79 in 10.0 mi NW 3.5 mph - N/A   Clear
6:35 PM 87.8 °F 23.0 °F 9% 29.79 in 10.0 mi WSW 5.8 mph 21.9 mph N/A   Clear
6:55 PM 87.8 °F 24.8 °F 10% 29.79 in 10.0 mi West 3.5 mph 9.2 mph N/A   Clear
7:15 PM 86.0 °F 26.6 °F 12% 29.78 in 10.0 mi South 5.8 mph - N/A   Clear
7:35 PM 86.0 °F 26.6 °F 12% 29.78 in 10.0 mi South 3.5 mph - N/A   Clear
7:55 PM 84.2 °F 28.4 °F 13% 29.78 in 10.0 mi South 6.9 mph - N/A   Clear
8:15 PM 80.6 °F 26.6 °F 14% 29.79 in 10.0 mi SSE 8.1 mph - N/A   Clear
8:35 PM 77.0 °F 28.4 °F 17% 29.79 in 10.0 mi SSE 8.1 mph - N/A   Clear
8:55 PM 71.6 °F 28.4 °F 20% 29.80 in 10.0 mi SSE 10.4 mph - N/A   Clear
9:15 PM 71.6 °F 28.4 °F 20% 29.80 in 10.0 mi SSE 8.1 mph - N/A   Clear
9:35 PM 69.8 °F 30.2 °F 23% 29.80 in 10.0 mi SSE 9.2 mph - N/A   Clear
9:55 PM 68.0 °F 30.2 °F 24% 29.80 in 10.0 mi SSE 8.1 mph - N/A   Clear
10:15 PM 64.4 °F 32.0 °F 30% 29.80 in 10.0 mi SSE 8.1 mph - N/A   Clear
10:35 PM 64.4 °F 30.2 °F 28% 29.80 in 10.0 mi SSE 12.7 mph - N/A   Clear
10:55 PM 68.0 °F 32.0 °F 26% 29.80 in 10.0 mi South 16.1 mph - N/A   Clear
11:15 PM 68.0 °F 35.6 °F 30% 29.80 in 10.0 mi South 16.1 mph - N/A   Clear
11:35 PM 69.8 °F 35.6 °F 28% 29.79 in 10.0 mi South 17.3 mph - N/A   Clear
11:55 PM 69.8 °F 35.6 °F 28% 29.79 in 10.0 mi South 19.6 mph 23.0 mph N/A   Clear